Date,TemperatureHighF,TemperatureAvgF,TemperatureLowF,DewpointHighF,DewpointAvgF,DewpointLowF,HumidityHigh,HumidityAvg,HumidityLow,PressureMaxIn,PressureMinIn,WindSpeedMaxMPH,WindSpeedAvgMPH,GustSpeedMaxMPH,PrecipitationSumIn
2013-5-1,84.0,74.1,63.0,52.0,47.1,41.0,63,40,23,30.11,29.91,13,-7,17,0.00
2013-5-2,61.0,48.3,39.0,46.0,39.1,36.0,93,71,57,30.24,30.10,18,13,24,0.24
2013-5-3,43.0,39.2,37.0,39.0,37.1,34.0,93,91,86,30.17,29.79,17,12,24,1.44
2013-5-4,48.0,44.3,39.0,45.0,41.2,37.0,93,88,81,30.04,29.79,8,2,0,0.02
2013-5-5,70.0,56.0,45.0,57.0,50.4,43.0,93,81,52,30.04,29.92,16,5,23,0.00
2013-5-6,77.0,63.8,52.0,55.0,50.6,45.0,93,65,33,30.05,29.97,14,6,20,0.00
2013-5-7,81.0,68.5,54.0,50.0,41.7,32.0,76,43,17,30.06,29.99,9,4,0,0.00
2013-5-8,81.0,68.3,57.0,57.0,49.1,37.0,72,52,27,30.05,29.97,13,5,23,0.00
2013-5-9,73.0,64.4,61.0,63.0,59.0,52.0,93,82,59,29.97,29.84,13,-1,38,0.89
2013-5-10,61.0,57.0,50.0,59.0,50.8,-99.9,93,83,72,30.03,29.85,15,-7,20,0.00
2013-5-11,64.0,54.6,45.0,52.0,36.0,-99.9,93,57,23,30.19,30.00,24,10,32,0.00
2013-5-12,63.0,51.0,39.0,28.0,25.0,19.0,60,38,19,30.26,30.14,15,6,20,0.00
2013-5-13,73.0,59.2,39.0,41.0,34.0,25.0,75,41,20,30.21,29.98,13,6,17,0.00
2013-5-14,90.0,74.7,57.0,55.0,48.7,39.0,67,42,22,29.98,29.77,18,11,25,0.00
2013-5-15,88.0,78.3,68.0,66.0,54.5,46.0,82,44,33,29.91,29.81,23,9,51,0.50
2013-5-16,86.0,65.1,64.0,66.0,36.2,-99.9,93,68,40,29.94,29.85,17,-3,23,0.03
2013-5-17,79.0,68.9,59.0,63.0,52.6,-99.9,87,66,50,29.98,29.92,8,4,0,0.00
2013-5-18,84.0,73.3,63.0,68.0,63.0,59.0,93,71,45,30.01,29.87,10,6,16,0.00
2013-5-19,91.0,79.2,70.0,70.0,64.0,57.0,82,61,37,29.89,29.65,16,10,24,0.00
2013-5-20,82.0,71.4,63.0,66.0,60.3,54.0,93,69,37,29.86,29.67,24,11,32,0.21
2013-5-23,64.0,61.2,55.0,54.0,52.0,48.0,81,71,63,30.25,30.07,12,8,20,0.00
2013-5-24,70.0,59.3,46.0,50.0,41.1,36.0,93,54,28,30.42,30.25,12,5,16,0.00
2013-5-25,68.0,59.2,54.0,54.0,47.7,39.0,93,66,47,30.35,30.16,15,7,22,0.70
2013-5-26,77.0,62.6,54.0,64.0,52.5,46.0,88,69,53,30.18,29.98,12,7,18,0.00
2013-5-27,75.0,68.8,64.0,64.0,63.0,59.0,93,82,57,29.98,29.71,15,5,20,0.28
2013-5-28,79.0,73.8,63.0,70.0,65.8,59.0,94,76,60,29.97,29.74,23,10,36,0.14
2013-5-29,88.0,73.3,63.0,64.0,60.9,57.0,93,68,40,29.95,29.78,20,10,31,0.11
2013-5-30,84.0,72.9,64.0,66.0,62.0,57.0,88,69,45,29.87,29.75,27,14,41,1.17
2013-5-31,66.0,38.9,63.0,63.0,-1.8,-99.9,93,55,82,29.90,29.69,14,7,21,0.44